Regional Weather Roundup
Issued by NWS Kansas City/Pleasant Hill, MO

Home | Current Version | Previous Version | Text Only | Print | Product List | Glossary On
Versions: 1 2 3 4 5 6 7 8 9 10 11 12 13 14 15 16 17 18 19 20 21 22 23 24 25 26 27 28 29 30 31 32 33 34 35 36 37 38 39 40 41 42 43 44 45 46 47 48 49 50
000
ASUS43 KEAX 292104
RWREAX

WEATHER ROUNDUP FOR EASTERN KANSAS AND NORTHWEST MISSOURI
NATIONAL WEATHER SERVICE KANSAS CITY/PLEASANT HILL MO
400 PM CDT TUE JUL 29 2014

KSZ040-057-103>105-MOZ028-029-037-043-292200-
...KANSAS CITY METROPOLITAN AREA...

CITY           SKY/WX    TMP DP  RH WIND       PRES   REMARKS
K.C. INTL      PTSUNNY   81  58  45 VRB3      30.14F
K.C. DOWNTOWN  MOSUNNY   83  57  41 N7        30.12F
LEES SUMMIT    MOSUNNY   82  56  40 VRB6      30.14F
OLATHE - IXD   MOSUNNY   84  54  35 NW12G17   30.14F
OLATHE - OJC   MOSUNNY   82  56  40 N10       30.13F
LAWRENCE       PTSUNNY   82  57  42 VRB3      30.13F

$$

MOZ001>008-011>017-020>025-030>033-038>040-044>046-053-054-292200-
...NORTHERN AND CENTRAL MISSOURI...

CITY           SKY/WX    TMP DP  RH WIND       PRES   REMARKS
ST. JOSEPH     PTSUNNY   81  60  48 NW7       30.14F
MOSBY          PTCLDY    79  54  41 N7        30.13F
WHITEMAN AFB   PTSUNNY   79  44  28 VRB1      30.13S
CLINTON        MOSUNNY   82  59  44 W9        30.13F
SEDALIA        MOSUNNY   82  58  43 N10       30.14F
WARSAW         NOT AVBL
MARSHALL       SUNNY     82  59  44 NW8       30.14F
CHILLICOTHE      N/A     81  57  43 N8        30.14F
KIRKSVILLE     MOSUNNY   80  54  40 N3        30.14F

$$

MOZ041-047>049-056>058-063>065-088>090-097-292200-
...EASTERN AND SOUTHERN MISSOURI...

CITY           SKY/WX    TMP DP  RH WIND       PRES   REMARKS
ST. LOUIS INTL MOSUNNY   81  56  42 N7        30.12F
SPIRIT OF STL  PTSUNNY   80  53  39 NE7       30.10F
COLUMBIA       MOSUNNY   80  56  43 N8        30.13F
JEFFERSON CITY MOSUNNY   81  53  37 NW8       30.11F
ROLLA          PTSUNNY   78  52  40 N6        30.12F
LEBANON        SUNNY     81  52  36 NW6       30.15S
OSAGE BEACH    MOSUNNY   81  54  39 NW6       30.12F
SPRINGFIELD    MOSUNNY   81  52  36 VRB6      30.14F
BRANSON        PTSUNNY   86  54  32 NW7       30.16S
JOPLIN         CLOUDY    79  58  48 W8        30.15F
WEST PLAINS    MOSUNNY   80  56  43 CALM      30.15F
MALDEN         SUNNY     79  54  41 CALM      30.14S

$$

IAZ060-094-KSZ022-034>040-054-083-096-NEZ052-066-093-292200-
...KANSAS...SOUTHEAST NEBRASKA AND IOWA...

CITY           SKY/WX    TMP DP  RH WIND       PRES   REMARKS
TOPEKA         MOSUNNY   85  57  38 VRB5      30.13F
MANHATTAN      MOSUNNY   82  57  42 E8        30.14F
EMPORIA        PTSUNNY   75  56  51 CALM      30.16F
CHANUTE        CLOUDY    76  57  51 VRB3      30.16F
WICHITA        MOSUNNY   88  61  40 E9        30.10F
OMAHA          PTSUNNY   79  52  38 NW10      30.15F
LINCOLN        MOSUNNY   82  51  34 MISG      30.17F
FALLS CITY     MOSUNNY   80  57  45 N8        30.14F
LAMONI         MOSUNNY   78  55  44 N9        30.14F
DES MOINES     MOSUNNY   80  52  37 NW7       30.12F

$$




USA.gov is the U.S. government's official web portal to all federal, state and local government web resources and services.